Probability
0 0 0 0 0 0 0 0 0 0 0 0 0 0 0 0 0 0 0 0 0 0 0 0 0 0 0 0 0 0 0 0 0 0 0 0 0 0 0 0 0 0 0
0 0 0 0 0 0 0 0 0 0 0 0 0 0 0 0 0 0 0 0 0 0 0 0 0 0 0 0 0 0 0 0 0 0 0 0 0 0 0 0 0 0 0
0 0 0 0 0 0 0 0 0 0 0 0 0 0 0 0 0 0 0 0 0 0 0 0 0 0 0 0 0 0 0 0 0 0 0 0 0 0 0 0 0 0 0
0 0 0 0 0 0 0 0 0 0 0 0 0 0 0 0 0 0 0 0 0 0 0 0 0 0 0 0 0 0 0 0 0 0 0 0 0 0 0 0 0 0 0
0 0 0 0 0 0 0 0 0 0 0 0 0 0 0 0 0 0 0 0 0 0 0 0 0 0 0 0 0 0 0 0 0 0 0 0 0 0 0 0 0 0 0
0 0 0 0 0 0 0 0 0 0 0 0 0 0 0 0 0 0 0 0 0 0 0 0 0 0 0 0 0 0 0 0 0 0 0 0 0 0 0 0 0 0 0
0 0 0 0 0 0 0 0 0 0 0 0 0 0 0 0 0 0 0 0 0 0 0 0 0 0 0 0 0 0 0 0 0 0 0 0 0 0 0 0 0 0 0
0 0 0 0 0 0 0 0 0 0 0 0 0 0 0 0 0 0 0 0 0 0 0 0 0 0 0 0 0 0 0 0 0 0 0 0 0 0 0 0 0 0 0
0 0 0 0 0 0 0 0 0 0 0 0 0 0 0 0 0 0 0 0 0 0 0 0 0 0 0 0 0 0 0 0 0 0 0 0 0 0 0 0 0 0 0
0 0 0 0 0 0 0 0 0 0 0 0 0 0 0 0 0 0 0 0 0 0 0 0 0 0 0 0 0 0 0 0 0 0 0 0 0 0 0 0 0 0 0
0 0 0 0 0 0 0 0 0 0 0 0 0 0 0 0 0 0 0 0 0 0 0 0 0 0 0 0 0 0 0 0 0 0 0 0 0 0 0 0 0 0 0
0 0 0 0 0 0 0 0 0 0 0 0 0 0 0 0 0 0 0 0 0 0 0 0 0 0 0 0 0 0 0 0 0 0 0 0 0 0 0 0 0 0 0
0 0 0 0 0 0 0 0 0 0 0 0 0 0 0 0 0 0 0 0 0 0 0 0 0 0 0 0 0 0 0 0 0 0 0 0 0 0 0 0 0 0 0
0 0 0 0 0 0 0 0 0 0 0 0 0 0 0 0 0 0 0 0 0 0 0 0 0 0 0 0 0 0 0 0 0 0 0 0 0 0 0 0 0 0 0
0 0 0 0 0 0 0 0 0 0 0 0 0 0 0 0 0 0 0 0 0 0 0 0 0 0 0 0 0 0 0 0 0 0 0 0 0 0 0 0 0 0 0
0 0 0 0 0 0 0 0 0 0 0 0 0 0 0 0 0 0 0 0 0 0 0 0 0 0 0 0 0 0 0 0 0 0 0 0 0 0 0 0 0 0 0
0 0 0 0 0 0 0 0 0 0 0 0 0 0 0 0 0 0 0 0 0 0 0 0 0 0 0 0 0 0 0 0 0 0 0 0 0 0 0 0 0 0 0
0 0 0 0 0 0 0 0 0 0 0 0 0 0 0 0 0 0 0 0 0 0 0 0 0 0 0 0 0 0 0 0 0 0 0 0 0 0 0 0 0 0 0
0 0 0 0 0 0 0 0 0 0 0 0 0 0 0 0 0 0 0 0 0 0 0 0 0 0 0 0 0 0 0 0 0 0 0 0 0 0 0 0 0 0 0
0 0 0 0 0 0 0 0 0 0 0 0 0 0 0 0 0 0 0 0 0 0 0 0 0 0 0 0 0 0 0 0 0 0 0 0 0 0 0 0 0 0 0
0 0 0 0 0 0 0 0 0 0 0 0 0 0 0 0 0 0 0 0 0 0 0 0 0 0 0 0 0 0 0 0 0 0 0 0 0 0 0 0 0 0 0
0 0 0 0 0 0 0 0 0 0 0 0 0 0 0 0 0 0 0 0 0 0 0 0 0 0 0 0 0 0 0 0 0 0 0 0 0 0 0 0 0 0 0
0 0 0 0 0 0 0 0 0 0 0 0 0 0 0 0 0 0 0 0 0 0 0 0 0 0 0 0 0 0 0 0 0 0 0 0 0 0 0 0 0 0 0
0 0 0 0 0 0 0 0 0 0 0 0 0 0 0 0 0 0 0 0 0 0 0 0 0 0 0 0 0 0 0 0 0 0 0 0 0 0 0 0 0 0 0
0 0 0 0 0 0 0 0 0 0 0 0 0 0 0 0 0 0 0 0 0 0 0 0 0 0 0 0 0 0 0 0 0 0 0 0 0 0 0 0 0 0 0
0 0 0 0 0 0 0 0 0 0 0 0 0 0 0 0 0 0 0 0 0 0 0 0 0 0 0 0 0 0 0 0 0 0 0 0 0 0 0 0 0 0 0
Height
5684 5686 5688 5690 5692 5694 5696 5699 5701 5704 5706 5709 5711 5714 5717 5720 5722 5725 5727 5729 5731 5733 5735 5738 5740 5743 5746 5749 5752 5755 5758 5760 5763 5765 5767 5769 5771 5773 5775 5777 5778 5779 5780
5674 5675 5677 5678 5680 5683 5685 5688 5690 5693 5695 5697 5700 5703 5706 5709 5711 5714 5716 5718 5720 5723 5725 5727 5730 5732 5736 5739 5742 5745 5747 5750 5753 5755 5757 5760 5763 5764 5766 5768 5769 5770 5771
5662 5664 5666 5668 5669 5672 5674 5676 5679 5681 5684 5686 5689 5691 5694 5696 5699 5702 5704 5707 5709 5712 5714 5717 5719 5722 5725 5728 5731 5734 5737 5740 5742 5745 5747 5750 5753 5755 5757 5758 5760 5761 5762
5651 5653 5655 5657 5659 5661 5663 5665 5667 5669 5672 5674 5677 5679 5682 5685 5688 5690 5693 5695 5698 5700 5703 5705 5708 5711 5714 5717 5720 5723 5726 5729 5731 5734 5736 5739 5742 5744 5746 5748 5749 5750 5752
5640 5642 5644 5646 5648 5650 5652 5654 5656 5658 5660 5662 5665 5667 5670 5673 5675 5678 5680 5683 5686 5688 5691 5694 5697 5699 5702 5706 5709 5712 5715 5717 5720 5722 5725 5727 5730 5732 5735 5737 5739 5740 5741
5630 5632 5634 5635 5637 5639 5640 5642 5644 5646 5648 5650 5652 5655 5658 5660 5663 5665 5668 5671 5673 5676 5679 5682 5685 5688 5691 5694 5697 5700 5703 5705 5708 5710 5713 5715 5718 5720 5723 5725 5728 5729 5730
5621 5622 5623 5625 5626 5628 5629 5631 5632 5634 5636 5638 5640 5643 5645 5648 5650 5653 5655 5659 5661 5664 5667 5670 5673 5676 5679 5682 5685 5688 5691 5693 5696 5698 5701 5703 5706 5708 5711 5713 5715 5717 5719
5612 5613 5613 5614 5616 5617 5619 5620 5621 5623 5625 5627 5629 5631 5633 5635 5638 5640 5643 5646 5649 5652 5654 5657 5660 5663 5666 5669 5672 5675 5678 5681 5683 5686 5688 5690 5693 5696 5698 5701 5703 5705 5707
5603 5603 5604 5605 5606 5607 5608 5610 5611 5612 5614 5615 5617 5618 5620 5623 5625 5628 5631 5633 5636 5639 5642 5645 5647 5650 5653 5656 5659 5662 5665 5668 5671 5673 5676 5678 5680 5683 5685 5688 5690 5692 5694
5594 5594 5594 5595 5596 5597 5598 5599 5600 5601 5602 5604 5605 5606 5608 5610 5613 5615 5618 5621 5623 5626 5629 5632 5635 5638 5641 5644 5646 5649 5651 5654 5657 5660 5662 5665 5667 5669 5672 5674 5676 5678 5680
5585 5585 5585 5585 5586 5586 5587 5588 5589 5590 5591 5592 5593 5594 5596 5598 5600 5603 5605 5608 5610 5613 5617 5620 5623 5626 5628 5631 5633 5635 5638 5641 5643 5646 5649 5651 5654 5656 5658 5660 5663 5665 5667
5576 5575 5575 5575 5575 5576 5576 5577 5577 5578 5579 5580 5581 5582 5584 5585 5587 5590 5592 5595 5597 5600 5603 5607 5610 5613 5615 5618 5620 5622 5624 5628 5630 5633 5635 5638 5640 5642 5645 5647 5649 5651 5653
5567 5566 5566 5565 5565 5565 5565 5565 5566 5566 5567 5568 5569 5570 5571 5572 5574 5576 5579 5581 5584 5587 5590 5593 5596 5599 5602 5605 5607 5609 5612 5614 5617 5619 5622 5624 5626 5628 5630 5633 5635 5637 5639
5558 5557 5556 5555 5554 5554 5554 5554 5554 5554 5555 5555 5556 5557 5558 5559 5561 5563 5565 5568 5570 5573 5577 5580 5583 5586 5589 5592 5594 5596 5598 5601 5603 5605 5607 5610 5613 5615 5617 5619 5621 5622 5624
5548 5547 5546 5545 5544 5544 5543 5543 5543 5543 5543 5543 5544 5545 5545 5546 5548 5550 5552 5554 5557 5560 5563 5566 5569 5572 5575 5578 5580 5583 5585 5587 5589 5591 5593 5596 5598 5600 5602 5604 5606 5607 5609
5539 5538 5536 5535 5534 5533 5532 5532 5531 5531 5531 5531 5532 5532 5533 5534 5535 5537 5539 5541 5544 5547 5549 5552 5555 5558 5561 5563 5566 5568 5570 5572 5575 5577 5579 5581 5583 5585 5586 5589 5590 5592 5594
5529 5528 5526 5525 5524 5522 5521 5520 5520 5520 5519 5519 5520 5520 5520 5521 5523 5524 5526 5528 5531 5533 5535 5538 5541 5544 5547 5549 5551 5553 5555 5558 5560 5562 5564 5566 5568 5569 5571 5573 5575 5577 5578
5519 5518 5516 5515 5513 5511 5510 5509 5508 5508 5508 5508 5508 5508 5508 5509 5510 5512 5514 5516 5518 5520 5522 5525 5528 5530 5533 5535 5536 5538 5540 5543 5545 5547 5549 5551 5553 5554 5556 5558 5559 5561 5563
5510 5508 5506 5504 5502 5501 5499 5498 5497 5497 5496 5496 5496 5496 5497 5497 5498 5499 5501 5503 5505 5507 5509 5512 5514 5516 5519 5520 5522 5524 5526 5528 5531 5533 5534 5536 5538 5540 5540 5542 5545 5546 5547
5500 5498 5495 5493 5492 5490 5488 5487 5486 5485 5485 5484 5484 5485 5485 5485 5486 5487 5489 5491 5493 5495 5497 5499 5501 5503 5505 5506 5508 5509 5511 5514 5516 5518 5520 5521 5523 5524 5524 5527 5529 5531 5532
5490 5487 5485 5483 5481 5479 5478 5476 5475 5474 5473 5473 5473 5473 5473 5474 5475 5476 5477 5478 5480 5482 5484 5486 5487 5489 5491 5492 5493 5495 5496 5499 5501 5502 5504 5506 5507 5508 5509 5511 5513 5515 5516
5480 5477 5474 5473 5471 5469 5467 5465 5464 5463 5462 5462 5461 5462 5462 5462 5462 5463 5464 5466 5467 5469 5470 5472 5473 5474 5476 5477 5479 5480 5482 5484 5486 5488 5489 5490 5491 5492 5494 5496 5498 5499 5500
5470 5467 5465 5463 5461 5459 5456 5454 5453 5451 5451 5450 5450 5450 5450 5450 5450 5451 5452 5453 5454 5456 5457 5458 5460 5461 5462 5463 5464 5465 5467 5468 5470 5472 5474 5475 5476 5477 5478 5480 5482 5483 5484
5460 5458 5456 5454 5451 5449 5446 5444 5442 5441 5440 5439 5439 5439 5439 5439 5438 5439 5440 5441 5442 5443 5444 5445 5446 5447 5448 5448 5449 5450 5452 5454 5455 5457 5459 5460 5460 5462 5463 5465 5466 5468 5469
5451 5448 5446 5444 5442 5439 5436 5434 5432 5430 5429 5429 5428 5427 5427 5427 5427 5427 5428 5429 5430 5430 5432 5432 5433 5434 5435 5435 5436 5437 5438 5440 5442 5443 5444 5446 5447 5448 5449 5450 5452 5453 5454
5442 5439 5437 5435 5432 5430 5427 5424 5422 5421 5419 5418 5417 5416 5416 5415 5415 5416 5417 5417 5418 5419 5419 5420 5421 5422 5423 5423 5423 5424 5425 5426 5428 5429 5431 5432 5433 5435 5436 5437 5438 5439 5440
Wind_Speed
40 40 41 41 42 42 42 42 43 43 44 44 44 44 45 45 44 44 44 43 43 43 43 43 44 44 44 43 43 43 42 41 41 41 41 41 40 40 38 38 38 37 37
39 39 40 41 42 42 42 42 43 43 44 44 45 45 46 46 46 46 46 45 43 43 44 44 45 45 45 45 44 45 44 43 43 43 43 43 42 41 40 40 39 39 38
38 39 40 41 42 42 42 42 43 44 45 45 45 46 47 47 47 47 47 47 46 45 44 44 46 46 46 46 46 46 45 45 45 46 45 44 43 43 43 42 41 40 40
37 39 40 40 42 42 42 42 43 43 44 45 45 46 47 47 48 47 48 48 48 46 45 45 46 46 47 46 46 46 46 47 47 47 47 46 45 44 44 44 43 42 42
36 37 39 40 42 42 42 43 43 44 45 46 46 46 46 47 48 48 48 49 48 47 46 46 46 46 47 47 47 46 47 48 48 47 48 47 47 46 45 44 44 44 44
34 36 37 39 41 42 43 43 43 44 45 46 46 46 46 47 48 49 49 48 48 47 46 45 46 46 47 48 48 47 47 48 48 48 48 47 48 48 47 46 45 45 45
32 34 35 37 38 40 41 42 43 43 44 46 46 46 46 46 47 48 49 48 48 48 48 47 47 47 47 48 48 47 47 47 48 48 48 48 48 48 47 47 46 45 45
31 32 33 34 35 37 39 40 42 43 44 45 46 47 47 48 48 48 48 49 48 48 48 48 48 47 48 49 49 48 48 48 49 49 49 49 48 48 48 48 48 48 47
30 31 32 33 34 35 37 39 41 42 43 44 46 47 47 48 49 49 49 49 49 48 48 47 48 47 47 48 49 49 50 50 50 50 51 50 50 50 50 50 50 49 49
30 31 32 32 33 35 36 37 39 40 41 43 44 46 47 47 48 49 49 49 50 49 47 48 48 48 47 48 49 49 50 50 50 50 51 52 52 51 51 50 50 50 50
31 31 32 32 33 34 35 36 38 39 41 42 42 44 45 46 47 48 48 48 49 50 49 48 48 49 48 48 48 48 50 51 50 50 50 50 51 51 51 50 50 51 51
31 31 32 33 34 35 36 37 37 39 41 42 44 44 44 46 47 48 49 48 48 49 50 50 49 48 48 48 48 48 49 50 50 49 49 49 50 51 51 52 52 51 51
31 31 31 32 33 35 37 37 38 39 40 42 43 44 45 46 46 47 49 49 50 50 50 50 50 49 48 49 49 49 49 49 49 50 50 50 50 51 51 51 52 53 53
32 33 32 32 33 34 36 37 37 38 38 40 42 43 44 45 45 46 48 49 50 50 51 51 51 50 50 50 50 49 50 50 50 50 50 51 51 51 51 52 53 53 53
32 33 33 33 33 33 36 37 37 38 39 39 41 43 43 44 45 46 47 48 49 49 50 51 51 51 51 51 51 51 51 51 51 51 51 52 53 53 53 53 53 54 54
32 32 33 33 33 34 35 37 37 38 39 39 40 40 41 42 44 44 46 46 48 49 49 50 52 52 51 51 51 51 51 51 51 52 52 53 53 54 55 55 55 55 55
31 31 33 33 34 34 36 36 37 38 38 38 39 40 40 41 42 43 44 45 46 47 47 49 50 51 51 52 52 52 52 52 52 52 53 53 53 54 54 55 55 56 55
31 31 32 33 33 34 35 36 36 36 36 37 38 39 39 40 40 42 43 44 45 45 46 47 48 50 51 51 51 52 52 52 53 53 53 53 53 53 54 55 55 55 55
32 33 34 34 34 34 34 34 34 35 36 37 37 38 39 40 41 41 42 43 44 44 45 46 47 49 49 50 51 52 52 52 53 53 53 53 54 54 54 55 55 55 55
33 34 35 35 35 34 34 34 35 36 36 36 37 38 38 40 40 41 41 42 43 43 44 45 47 48 49 49 50 51 52 52 52 52 53 54 54 55 55 55 55 54 55
33 34 35 34 34 34 34 34 35 36 36 36 36 37 38 39 40 40 42 42 43 44 45 45 46 47 48 49 50 50 51 51 51 52 52 52 53 54 54 54 54 54 54
33 34 33 33 33 34 34 34 35 35 35 36 36 37 37 38 39 40 41 42 43 44 45 45 45 46 47 47 48 49 50 50 50 50 50 51 52 52 53 54 54 54 54
32 32 32 32 32 33 34 34 34 35 35 35 36 36 37 38 39 39 40 41 42 43 44 45 45 45 46 47 47 48 49 49 49 48 48 49 50 52 53 53 53 54 54
31 31 32 32 32 32 32 33 33 33 34 34 35 36 36 37 38 39 40 41 42 43 43 43 44 43 44 45 46 47 48 48 48 48 47 48 48 49 50 51 51 51 52
31 31 31 31 32 32 31 32 32 32 32 33 34 35 36 37 38 39 40 40 41 41 41 41 41 41 41 41 43 44 46 47 47 47 47 46 47 47 47 48 48 49 49
30 30 30 30 30 30 30 31 31 31 31 32 33 34 35 36 37 38 38 39 39 39 40 40 40 40 40 41 41 41 42 43 45 46 45 45 45 46 46 47 47 47 47
Wind_Direction
251 251 250 250 249 250 250 250 250 248 249 249 250 249 248 249 248 248 249 250 250 249 249 249 249 247 246 247 247 247 247 247 248 248 248 249 250 251 252 253 254 255 256
253 251 250 250 251 250 250 250 250 249 249 249 250 250 248 248 248 248 248 249 250 249 249 250 249 247 247 247 247 246 247 248 248 249 250 250 249 250 251 253 254 255 256
253 251 251 251 251 250 249 250 250 249 249 249 250 250 249 249 249 249 249 250 249 249 249 250 249 247 247 248 247 246 248 249 249 250 251 251 250 250 251 252 254 255 257
254 251 250 249 250 249 249 249 250 250 249 249 250 251 250 249 249 249 250 250 249 250 249 248 248 248 247 247 247 247 248 249 250 250 251 251 251 251 251 252 253 255 257
255 253 251 249 249 249 250 250 250 250 250 250 250 250 250 250 249 249 249 249 249 250 250 250 249 249 248 247 248 248 249 250 250 251 251 250 250 251 252 253 254 256 257
256 255 253 251 250 250 250 250 250 250 250 250 250 249 250 250 249 249 249 249 250 250 250 250 250 250 249 248 248 248 249 249 250 251 251 250 251 253 254 254 254 256 257
257 256 255 254 252 251 252 250 251 251 250 249 249 249 249 249 249 249 250 249 250 250 250 250 250 250 251 250 249 248 249 249 250 251 251 250 252 253 254 255 255 256 257
259 258 257 255 254 253 252 252 252 252 251 250 250 249 250 250 249 249 250 249 249 249 250 251 250 250 250 251 250 249 249 249 250 251 251 250 251 253 254 255 257 257 257
262 261 259 257 256 254 254 254 253 253 252 253 252 251 250 250 249 249 249 249 250 250 250 249 249 249 250 250 250 250 250 250 250 250 251 252 252 252 254 255 257 258 258
267 265 262 259 257 256 256 255 255 254 252 253 253 251 250 251 250 249 249 249 249 249 249 249 248 248 249 250 251 250 251 251 251 250 250 251 252 253 254 255 256 257 258
271 269 265 262 260 259 259 257 256 255 255 254 254 253 252 251 250 249 249 249 249 248 248 249 249 250 250 250 251 252 252 251 251 251 251 252 252 252 254 255 256 257 258
272 272 270 266 264 262 261 261 260 259 257 257 256 255 254 253 251 249 249 250 249 248 248 248 249 250 251 251 251 251 251 251 252 253 253 253 253 253 253 253 254 256 258
273 273 274 270 267 265 264 263 262 261 260 259 257 257 256 254 251 250 250 250 250 249 249 249 249 250 250 251 251 252 252 253 254 255 255 254 255 255 254 254 255 256 258
277 276 275 273 269 267 265 265 263 261 260 259 257 257 256 255 252 251 251 251 250 250 250 250 250 250 251 251 252 253 253 254 255 255 255 255 255 255 255 255 256 257 258
278 277 275 274 273 270 267 265 263 261 260 260 259 257 257 255 253 251 251 250 249 250 250 250 250 252 252 252 252 253 254 254 255 256 256 256 255 255 255 256 257 258 259
277 277 276 275 273 271 269 266 264 263 262 260 260 259 258 256 253 251 251 251 250 250 250 250 251 252 252 253 254 254 254 254 255 256 256 256 256 256 256 256 257 258 259
278 277 276 275 273 271 269 268 267 265 264 262 260 258 257 255 253 253 252 252 251 251 250 251 252 252 253 254 256 255 255 255 255 256 256 257 257 257 257 257 258 259 260
279 278 277 277 275 273 272 270 269 267 265 264 261 259 257 255 255 254 252 251 251 251 251 251 252 253 255 255 256 256 256 255 255 255 256 257 257 258 258 258 259 260 261
280 279 279 278 277 276 274 271 270 267 265 263 262 261 259 258 257 257 254 253 252 251 251 252 253 254 255 256 256 257 256 256 257 257 257 257 258 258 259 259 259 259 260
281 280 280 279 278 276 275 273 271 269 267 265 263 261 260 259 258 257 255 253 253 252 253 254 254 255 256 256 257 257 257 257 257 257 258 258 258 258 259 260 260 260 261
282 280 279 279 278 276 275 274 272 271 268 265 264 262 260 259 259 257 255 254 254 254 255 255 255 256 256 257 257 257 258 258 258 258 259 259 259 259 259 259 260 261 261
284 281 280 279 277 277 276 274 272 270 269 267 265 262 261 260 260 258 256 255 256 256 256 256 256 257 256 257 258 259 260 259 259 259 260 259 258 258 259 259 260 261 261
285 283 281 280 279 278 276 275 273 271 269 267 265 263 262 261 261 260 258 257 258 258 258 258 257 257 257 257 258 259 259 259 259 259 259 259 259 259 259 259 260 261 262
286 284 283 282 281 280 278 277 275 273 271 268 266 264 264 264 263 261 260 259 259 259 259 259 258 258 257 257 257 258 259 258 258 259 259 260 260 259 260 260 261 262 262
285 286 285 284 282 282 280 278 277 275 273 270 269 267 266 265 264 263 261 261 260 260 259 259 259 258 258 259 259 258 258 257 257 257 258 259 260 259 260 260 261 261 262
285 286 286 286 285 284 284 282 280 277 276 274 272 271 269 268 266 264 263 262 262 261 259 259 259 259 259 259 260 260 259 258 258 257 258 258 260 260 260 261 261 261 262